Weather History for Seldovia, AK

Change the Weather History Date:

Sunday, November 4, 2012

  Actual Average (PAHO) Record (PAHO)
Temperature  
Mean Temperature 32 °F -  
Max Temperature 37 °F 38 °F 58 °F (1935)
Min Temperature 27 °F 26 °F 3 °F (1975)
Degree Days  
Heating Degree Days 33    
Moisture  
Dew Point 28 °F    
Average Humidity 86    
Maximum Humidity 96    
Minimum Humidity 57    
Precipitation  
Precipitation 0.00 in - - ()
Sea Level Pressure  
Sea Level Pressure 29.34 in    
Wind  
Wind Speed 0 mph (North)    
Max Wind Speed 6 mph    
Max Gust Speed -    
Visibility 10 miles    
Events      
Averages and records for this station are not official NWS values.
T = Trace of Precipitation, MM = Missing Value Source: NWS Daily Summary

Daily Weather History Graph

Daily Weather History Graph

Search for Another Location

Airport:

Trip Planner

Search our weather history database for the weather conditions in past years. The results will help you decide how hot, cold, wet, or windy it might be!

Date:

Astronomy

Nov. 04, 2012 Rise Set
Actual Time 8:36 AM AKST 5:03 PM AKST
Civil Twilight 7:50 AM AKST 5:48 PM AKST
Nautical Twilight 7:01 AM AKST 6:38 PM AKST
Astronomical Twilight 6:14 AM AKST 7:25 PM AKST
Moon 9:40 PM AKST (11/4) 1:41 PM AKST (11/4)
Length of Visible Light 9h 58m
Length of Day
8h 27m
Waning Gibbous, 70% of the Moon is Illuminated
Nov 4
Waning Gibbous
Nov 6
Last Quarter
Nov 13
New
Nov 20
First Quarter
Nov 28
Full

Hourly Weather History & Observations

Time (AKST) Temp. Windchill Dew Point Humidity Pressure Visibility Wind Dir Wind Speed Gust Speed Precip Events Conditions
12:53 AM 32.0 °F - 30.0 °F 92% 29.34 in 10.0 mi Calm Calm - N/A   Overcast
1:53 AM 32.0 °F - 30.0 °F 92% 29.35 in 10.0 mi Calm Calm - N/A   Overcast
1:53 AM 32.0 °F - 30.0 °F 92% 29.34 in 10.0 mi Calm Calm - N/A   Overcast
3:53 AM 28.9 °F - 27.0 °F 92% 29.34 in 10.0 mi Calm Calm - N/A   Partly Cloudy
4:19 AM 30.2 °F - 26.6 °F 86% 29.33 in 10.0 mi Calm Calm - N/A   Mostly Cloudy
4:53 AM 30.0 °F - 27.0 °F 88% 29.33 in 10.0 mi Calm Calm - N/A   Scattered Clouds
5:37 AM 30.2 °F - 28.4 °F 93% 29.33 in 10.0 mi Calm Calm - N/A   Mostly Cloudy
5:53 AM 30.0 °F - 28.0 °F 92% 29.34 in 10.0 mi Calm Calm - N/A   Overcast
6:53 AM 30.0 °F - 28.0 °F 92% 29.34 in 10.0 mi Calm Calm - N/A   Mostly Cloudy
7:23 AM 28.4 °F - 26.6 °F 93% 29.33 in 10.0 mi Calm Calm - N/A   Partly Cloudy
7:40 AM 28.4 °F - 26.6 °F 93% 29.33 in 10.0 mi Calm Calm - N/A   Mostly Cloudy
7:53 AM 30.0 °F - 28.0 °F 92% 29.34 in 10.0 mi Calm Calm - N/A   Overcast
8:53 AM 30.0 °F - 28.9 °F 96% 29.34 in 10.0 mi Calm Calm - N/A   Overcast
9:53 AM 32.0 °F - 30.9 °F 96% 29.34 in 10.0 mi Calm Calm - N/A   Overcast
10:53 AM 33.1 °F - 30.9 °F 92% 29.33 in 10.0 mi Calm Calm - N/A   Mostly Cloudy
11:00 AM 33.8 °F - 30.2 °F 87% 29.33 in 10.0 mi Calm Calm - N/A   Scattered Clouds
11:38 AM 35.6 °F - 30.2 °F 81% 29.32 in 10.0 mi Calm Calm - N/A   Mostly Cloudy
11:53 AM 35.1 °F - 30.9 °F 85% 29.32 in 10.0 mi Calm Calm - N/A   Mostly Cloudy
12:53 PM 36.0 °F 33.3 °F 30.9 °F 82% 29.33 in 10.0 mi North 3.5 mph - N/A   Scattered Clouds
1:24 PM 35.6 °F 30.7 °F 30.2 °F 81% 29.33 in 10.0 mi North 5.8 mph - N/A   Mostly Cloudy
1:53 PM 36.0 °F 33.3 °F 30.0 °F 79% 29.33 in 10.0 mi North 3.5 mph - N/A   Mostly Cloudy
2:34 PM 35.6 °F - 30.2 °F 81% 29.32 in 10.0 mi Calm Calm - N/A   Scattered Clouds
2:53 PM 36.0 °F - 28.9 °F 76% 29.32 in 10.0 mi Calm Calm - N/A   Clear
3:53 PM 37.0 °F 32.4 °F 23.0 °F 57% 29.33 in 10.0 mi North 5.8 mph - N/A   Clear
4:53 PM 35.1 °F - 24.1 °F 64% 29.34 in 10.0 mi Calm Calm - N/A   Clear
5:53 PM 30.9 °F - 24.1 °F 76% 29.34 in 10.0 mi Calm Calm - N/A   Clear
6:53 PM 28.9 °F - 23.0 °F 78% 29.34 in 10.0 mi Calm Calm - N/A   Clear
7:53 PM 28.0 °F - 24.1 °F 85% 29.35 in 10.0 mi Calm Calm - N/A   Clear
8:53 PM 28.0 °F - 24.1 °F 85% 29.37 in 10.0 mi Calm Calm - N/A   Partly Cloudy
9:53 PM 27.0 °F - 24.1 °F 89% 29.39 in 10.0 mi Calm Calm - N/A   Clear
10:53 PM 27.0 °F - 23.0 °F 85% 29.40 in 10.0 mi Calm Calm - N/A   Clear